Time,TemperatureF,DewpointF,PressureIn,WindDirection,WindDirectionDegrees,WindSpeedMPH,WindSpeedGustMPH,Humidity,HourlyPrecipIn,Conditions,Clouds,dailyrainin,SoftwareType,DateUTC
2013-01-09 00:05:00,33.9,29.0,30.16,South,169,0.0,-999.0,83,-99.99,,,0.00,weatherlink.com 1.10,2013-01-09 05:05:00,
2013-01-09 00:20:00,34.6,30.0,30.15,SSE,149,0.0,-999.0,83,-99.99,,,0.00,weatherlink.com 1.10,2013-01-09 05:20:00,
2013-01-09 00:36:00,35.2,31.0,30.14,SSE,153,4.0,-999.0,83,-99.99,,,0.00,weatherlink.com 1.10,2013-01-09 05:36:00,
2013-01-09 00:50:00,35.7,31.0,30.14,South,170,0.0,-999.0,83,-99.99,,,0.00,weatherlink.com 1.10,2013-01-09 05:50:00,
2013-01-09 01:05:00,35.9,31.0,30.13,SSE,166,3.0,-999.0,83,-99.99,,,0.00,weatherlink.com 1.10,2013-01-09 06:05:00,
2013-01-09 01:20:00,36.4,31.0,30.12,South,171,9.0,-999.0,82,-99.99,,,0.00,weatherlink.com 1.10,2013-01-09 06:20:00,
2013-01-09 01:35:00,36.7,32.0,30.11,South,171,5.0,-999.0,82,-99.99,,,0.00,weatherlink.com 1.10,2013-01-09 06:35:00,
2013-01-09 01:50:00,36.8,32.0,30.10,SSE,153,3.0,-999.0,82,-99.99,,,0.00,weatherlink.com 1.10,2013-01-09 06:50:00,
2013-01-09 02:05:00,37.9,33.0,30.10,South,186,7.0,-999.0,82,-99.99,,,0.00,weatherlink.com 1.10,2013-01-09 07:05:00,
2013-01-09 02:20:00,38.6,34.0,30.11,South,173,9.0,-999.0,82,-99.99,,,0.00,weatherlink.com 1.10,2013-01-09 07:20:00,
2013-01-09 02:35:00,39.7,34.0,30.10,South,173,5.0,-999.0,81,-99.99,,,0.00,weatherlink.com 1.10,2013-01-09 07:35:00,
2013-01-09 02:50:00,40.5,35.0,30.11,SE,143,5.0,-999.0,81,-99.99,,,0.00,weatherlink.com 1.10,2013-01-09 07:50:00,
2013-01-09 03:06:00,40.7,35.0,30.11,South,182,5.0,-999.0,81,-99.99,,,0.00,weatherlink.com 1.10,2013-01-09 08:06:00,
2013-01-09 03:21:00,40.6,35.0,30.10,South,172,7.0,-999.0,80,-99.99,,,0.00,weatherlink.com 1.10,2013-01-09 08:21:00,
2013-01-09 03:36:00,40.4,35.0,30.09,South,186,3.0,-999.0,80,-99.99,,,0.00,weatherlink.com 1.10,2013-01-09 08:36:00,
2013-01-09 03:51:00,40.2,35.0,30.10,SSE,154,5.0,-999.0,80,-99.99,,,0.00,weatherlink.com 1.10,2013-01-09 08:51:00,
2013-01-09 04:06:00,40.1,34.0,30.09,SSW,210,9.0,-999.0,80,-99.99,,,0.00,weatherlink.com 1.10,2013-01-09 09:06:00,
2013-01-09 04:21:00,40.2,35.0,30.09,SSW,205,4.0,-999.0,80,-99.99,,,0.00,weatherlink.com 1.10,2013-01-09 09:21:00,
2013-01-09 04:51:00,40.1,34.0,30.09,SSW,202,5.0,-999.0,80,-99.99,,,0.00,weatherlink.com 1.10,2013-01-09 09:51:00,
2013-01-09 05:06:00,40.0,34.0,30.08,South,181,5.0,-999.0,80,-99.99,,,0.00,weatherlink.com 1.10,2013-01-09 10:06:00,
2013-01-09 05:21:00,39.9,34.0,30.09,SSW,211,10.0,-999.0,80,-99.99,,,0.00,weatherlink.com 1.10,2013-01-09 10:21:00,
2013-01-09 05:36:00,39.6,34.0,30.10,SW,214,9.0,-999.0,80,-99.99,,,0.00,weatherlink.com 1.10,2013-01-09 10:36:00,
2013-01-09 05:51:00,39.8,34.0,30.10,South,186,5.0,-999.0,81,-99.99,,,0.00,weatherlink.com 1.10,2013-01-09 10:51:00,
2013-01-09 06:06:00,40.0,35.0,30.10,SW,227,6.0,-999.0,81,-99.99,,,0.00,weatherlink.com 1.10,2013-01-09 11:06:00,
2013-01-09 06:21:00,40.4,35.0,30.11,SW,233,12.0,-999.0,81,-99.99,,,0.00,weatherlink.com 1.10,2013-01-09 11:21:00,
2013-01-09 06:36:00,40.9,36.0,30.10,SSW,212,6.0,-999.0,81,-99.99,,,0.00,weatherlink.com 1.10,2013-01-09 11:36:00,
2013-01-09 06:51:00,40.8,35.0,30.10,SSW,210,6.0,-999.0,81,-99.99,,,0.00,weatherlink.com 1.10,2013-01-09 11:51:00,
2013-01-09 07:06:00,40.8,35.0,30.11,SSW,194,4.0,-999.0,81,-99.99,,,0.00,weatherlink.com 1.10,2013-01-09 12:06:00,
2013-01-09 07:21:00,40.6,35.0,30.11,SSW,213,9.0,-999.0,81,-99.99,,,0.00,weatherlink.com 1.10,2013-01-09 12:21:00,
2013-01-09 07:36:00,40.3,35.0,30.12,SW,216,11.0,-999.0,81,-99.99,,,0.00,weatherlink.com 1.10,2013-01-09 12:36:00,
2013-01-09 07:51:00,40.2,35.0,30.13,SW,214,8.0,-999.0,81,-99.99,,,0.00,weatherlink.com 1.10,2013-01-09 12:51:00,
2013-01-09 08:06:00,40.1,35.0,30.14,SSW,211,13.0,-999.0,82,-99.99,,,0.00,weatherlink.com 1.10,2013-01-09 13:06:00,
2013-01-09 08:23:00,40.0,35.0,30.14,SW,215,7.0,-999.0,82,-99.99,,,0.00,weatherlink.com 1.10,2013-01-09 13:23:00,
2013-01-09 08:36:00,40.1,35.0,30.15,WSW,255,6.0,-999.0,82,-99.99,,,0.00,weatherlink.com 1.10,2013-01-09 13:36:00,
2013-01-09 08:51:00,40.2,35.0,30.16,WSW,248,9.0,-999.0,83,-99.99,,,0.00,weatherlink.com 1.10,2013-01-09 13:51:00,
2013-01-09 09:06:00,40.3,36.0,30.17,SW,226,9.0,-999.0,83,-99.99,,,0.00,weatherlink.com 1.10,2013-01-09 14:06:00,
2013-01-09 09:21:00,39.4,35.0,30.17,SW,219,5.0,-999.0,83,-99.99,,,0.00,weatherlink.com 1.10,2013-01-09 14:21:00,
2013-01-09 09:36:00,39.7,35.0,30.18,SSW,207,13.0,-999.0,84,-99.99,,,0.00,weatherlink.com 1.10,2013-01-09 14:36:00,
2013-01-09 09:51:00,40.1,36.0,30.19,SSW,196,13.0,-999.0,84,-99.99,,,0.00,weatherlink.com 1.10,2013-01-09 14:51:00,
2013-01-09 10:06:00,40.9,36.0,30.19,WSW,250,11.0,-999.0,84,-99.99,,,0.00,weatherlink.com 1.10,2013-01-09 15:06:00,
2013-01-09 10:21:00,41.5,37.0,30.20,SSW,213,10.0,-999.0,84,-99.99,,,0.00,weatherlink.com 1.10,2013-01-09 15:21:00,
2013-01-09 10:36:00,41.6,37.0,30.20,SW,234,13.0,-999.0,83,-99.99,,,0.00,weatherlink.com 1.10,2013-01-09 15:36:00,
2013-01-09 10:51:00,41.5,37.0,30.21,SW,228,9.0,-999.0,83,-99.99,,,0.00,weatherlink.com 1.10,2013-01-09 15:51:00,
2013-01-09 11:06:00,41.6,37.0,30.22,SSW,202,9.0,-999.0,83,-99.99,,,0.00,weatherlink.com 1.10,2013-01-09 16:06:00,
2013-01-09 11:21:00,41.8,37.0,30.22,SSW,211,12.0,-999.0,83,-99.99,,,0.00,weatherlink.com 1.10,2013-01-09 16:21:00,
2013-01-09 11:51:00,41.8,37.0,30.22,SW,222,7.0,-999.0,82,-99.99,,,0.00,weatherlink.com 1.10,2013-01-09 16:51:00,
2013-01-09 12:06:00,41.9,37.0,30.21,WSW,242,6.0,-999.0,82,-99.99,,,0.00,weatherlink.com 1.10,2013-01-09 17:06:00,
2013-01-09 12:21:00,41.9,37.0,30.20,SW,234,11.0,-999.0,82,-99.99,,,0.00,weatherlink.com 1.10,2013-01-09 17:21:00,
2013-01-09 12:36:00,41.9,37.0,30.21,SW,228,7.0,-999.0,82,-99.99,,,0.00,weatherlink.com 1.10,2013-01-09 17:36:00,
2013-01-09 12:51:00,41.9,37.0,30.20,SW,232,4.0,-999.0,82,-99.99,,,0.00,weatherlink.com 1.10,2013-01-09 17:51:00,
2013-01-09 13:06:00,42.2,37.0,30.20,WSW,246,5.0,-999.0,81,-99.99,,,0.00,weatherlink.com 1.10,2013-01-09 18:06:00,
2013-01-09 13:21:00,42.0,37.0,30.20,West,261,6.0,-999.0,81,-99.99,,,0.00,weatherlink.com 1.10,2013-01-09 18:21:00,
2013-01-09 13:36:00,42.1,37.0,30.21,WSW,250,4.0,-999.0,81,-99.99,,,0.00,weatherlink.com 1.10,2013-01-09 18:36:00,
2013-01-09 13:51:00,42.1,37.0,30.21,SSW,209,9.0,-999.0,81,-99.99,,,0.00,weatherlink.com 1.10,2013-01-09 18:51:00,
2013-01-09 14:06:00,42.4,37.0,30.22,SW,227,7.0,-999.0,81,-99.99,,,0.00,weatherlink.com 1.10,2013-01-09 19:06:00,
2013-01-09 14:21:00,42.7,37.0,30.23,West,265,6.0,-999.0,81,-99.99,,,0.00,weatherlink.com 1.10,2013-01-09 19:21:00,
2013-01-09 14:36:00,43.1,38.0,30.23,WSW,244,7.0,-999.0,81,-99.99,,,0.00,weatherlink.com 1.10,2013-01-09 19:36:00,
2013-01-09 14:51:00,43.4,38.0,30.23,SW,224,7.0,-999.0,80,-99.99,,,0.00,weatherlink.com 1.10,2013-01-09 19:51:00,
2013-01-09 15:06:00,43.5,37.0,30.24,SSW,205,7.0,-999.0,79,-99.99,,,0.00,weatherlink.com 1.10,2013-01-09 20:06:00,
2013-01-09 15:21:00,43.4,37.0,30.25,SW,226,9.0,-999.0,79,-99.99,,,0.00,weatherlink.com 1.10,2013-01-09 20:21:00,
2013-01-09 15:36:00,43.3,37.0,30.26,SSW,213,7.0,-999.0,79,-99.99,,,0.00,weatherlink.com 1.10,2013-01-09 20:36:00,
2013-01-09 15:51:00,43.3,37.0,30.26,SW,227,6.0,-999.0,79,-99.99,,,0.00,weatherlink.com 1.10,2013-01-09 20:51:00,
2013-01-09 16:06:00,43.1,37.0,30.26,SW,235,4.0,-999.0,78,-99.99,,,0.00,weatherlink.com 1.10,2013-01-09 21:06:00,
2013-01-09 16:21:00,42.7,37.0,30.27,SW,235,9.0,-999.0,79,-99.99,,,0.00,weatherlink.com 1.10,2013-01-09 21:21:00,
2013-01-09 16:36:00,42.4,36.0,30.27,SW,234,7.0,-999.0,78,-99.99,,,0.00,weatherlink.com 1.10,2013-01-09 21:36:00,
2013-01-09 16:51:00,41.8,36.0,30.28,West,275,7.0,-999.0,79,-99.99,,,0.00,weatherlink.com 1.10,2013-01-09 21:51:00,
2013-01-09 17:06:00,40.9,35.0,30.28,SW,232,9.0,-999.0,79,-99.99,,,0.00,weatherlink.com 1.10,2013-01-09 22:06:00,
2013-01-09 17:21:00,40.4,34.0,30.29,SW,234,4.0,-999.0,79,-99.99,,,0.00,weatherlink.com 1.10,2013-01-09 22:21:00,
2013-01-09 17:36:00,39.9,34.0,30.30,WSW,246,4.0,-999.0,79,-99.99,,,0.00,weatherlink.com 1.10,2013-01-09 22:36:00,
2013-01-09 17:51:00,39.3,34.0,30.31,SW,234,3.0,-999.0,80,-99.99,,,0.00,weatherlink.com 1.10,2013-01-09 22:51:00,
2013-01-09 18:06:00,39.0,33.0,30.31,SSW,211,5.0,-999.0,80,-99.99,,,0.00,weatherlink.com 1.10,2013-01-09 23:06:00,
2013-01-09 18:36:00,37.6,32.0,30.33,SW,234,5.0,-999.0,81,-99.99,,,0.00,weatherlink.com 1.10,2013-01-09 23:36:00,
2013-01-09 18:51:00,37.4,32.0,30.34,SW,226,5.0,-999.0,81,-99.99,,,0.00,weatherlink.com 1.10,2013-01-09 23:51:00,
2013-01-09 19:06:00,37.6,33.0,30.34,SW,218,2.0,-999.0,82,-99.99,,,0.00,weatherlink.com 1.10,2013-01-10 00:06:00,
2013-01-09 19:21:00,37.5,33.0,30.34,SW,228,4.0,-999.0,82,-99.99,,,0.00,weatherlink.com 1.10,2013-01-10 00:21:00,
2013-01-09 19:36:00,37.2,32.0,30.35,WSW,242,3.0,-999.0,82,-99.99,,,0.00,weatherlink.com 1.10,2013-01-10 00:36:00,
2013-01-09 19:51:00,36.8,32.0,30.35,SW,214,5.0,-999.0,82,-99.99,,,0.00,weatherlink.com 1.10,2013-01-10 00:51:00,
2013-01-09 20:06:00,36.4,32.0,30.35,SW,223,4.0,-999.0,83,-99.99,,,0.00,weatherlink.com 1.10,2013-01-10 01:06:00,
2013-01-09 20:21:00,36.2,32.0,30.35,SW,223,2.0,-999.0,83,-99.99,,,0.00,weatherlink.com 1.10,2013-01-10 01:21:00,
2013-01-09 20:36:00,36.3,32.0,30.36,SW,223,6.0,-999.0,83,-99.99,,,0.00,weatherlink.com 1.10,2013-01-10 01:36:00,
2013-01-09 20:51:00,36.5,32.0,30.36,SW,230,3.0,-999.0,84,-99.99,,,0.00,weatherlink.com 1.10,2013-01-10 01:51:00,
2013-01-09 21:06:00,36.6,32.0,30.37,SW,219,0.0,-999.0,84,-99.99,,,0.00,weatherlink.com 1.10,2013-01-10 02:06:00,
2013-01-09 21:21:00,36.7,32.0,30.38,SW,224,0.0,-999.0,84,-99.99,,,0.00,weatherlink.com 1.10,2013-01-10 02:21:00,
2013-01-09 21:36:00,36.2,32.0,30.38,SSW,210,0.0,-999.0,84,-99.99,,,0.00,weatherlink.com 1.10,2013-01-10 02:36:00,
2013-01-09 21:51:00,35.4,31.0,30.39,SW,219,2.0,-999.0,84,-99.99,,,0.00,weatherlink.com 1.10,2013-01-10 02:51:00,
2013-01-09 22:06:00,35.0,31.0,30.40,SW,219,2.0,-999.0,84,-99.99,,,0.00,weatherlink.com 1.10,2013-01-10 03:06:00,
2013-01-09 22:21:00,34.7,30.0,30.40,SW,219,0.0,-999.0,84,-99.99,,,0.00,weatherlink.com 1.10,2013-01-10 03:21:00,
2013-01-09 22:36:00,34.4,30.0,30.41,SW,219,1.0,-999.0,85,-99.99,,,0.00,weatherlink.com 1.10,2013-01-10 03:36:00,
2013-01-09 22:51:00,33.9,30.0,30.41,SW,219,0.0,-999.0,85,-99.99,,,0.00,weatherlink.com 1.10,2013-01-10 03:51:00,
2013-01-09 23:06:00,34.2,30.0,30.42,SW,219,0.0,-999.0,85,-99.99,,,0.00,weatherlink.com 1.10,2013-01-10 04:06:00,
2013-01-09 23:20:00,34.1,30.0,30.43,SW,219,0.0,-999.0,85,-99.99,,,0.00,weatherlink.com 1.10,2013-01-10 04:20:00,
2013-01-09 23:35:00,34.1,30.0,30.44,SW,219,0.0,-999.0,85,-99.99,,,0.00,weatherlink.com 1.10,2013-01-10 04:35:00,
2013-01-09 23:50:00,33.5,30.0,30.45,SW,220,0.0,-999.0,85,-99.99,,,0.00,weatherlink.com 1.10,2013-01-10 04:50:00,